Location: Newark
(20.0000°S, 47.0000°E)
Time: 20:43:29
(UTC+00:00)

N. Korean satellite - Pass Details

Date: 20 March 2019
Orbit: 457 x 508 km, 97.2° (Epoch: 22 April)

Event Time Altitude Azimuth Distance (km) Brightness Sun altitude
Rises 15:48:39 0° 201° (SSW) 2,578 10.6 -11.5°
Maximum altitude 15:53:05 10° 253° (WSW) 1,655 10.6 -12.5°
Drops below altitude 10° 15:53:29 10° 259° (W) 1,662 10.8 -12.6°
Sets 15:57:26 0° 305° (NW) 2,510 11.0 -13.6°
